FENGYUN 1C DEB

Satellite information

Favourite Embed

Satellite Type and Status

DEBRISIN ORBIT

Key statistics

Satellite FENGYUN 1C DEB at a glance.

Uptime

9715

Days in orbit

Revolutions

≈ 14.4

Per day

Orbit

SSO

Sun Synchronous Orbit

Inclination

98.8

Latest

Satellite identification and parameters

Extended collection of information and parameters for FENGYUN 1C DEB.

Object identification

Identified? True

Debris? True

Object name: FENGYUN 1C DEB

International designator: 1999-025DQR

Object number (NORAD): 35233

Object ID (CCSDS): 35233

Country: PEOPLES REPUBLIC OF CHINA (PRC)

Current information (Y/N): Y

RCS size: SMALL

Orbital parameters

Period: 99.873 minutes

Inclination: 98.7698 deg

SMA: 7130.611 km

Apoapsis: 781.927 km

Periapsis: 723.026 km

RAAN: 83.8157 deg

Eccentricy: 0.00413015

Argument of periapsis: 267.1274 deg

Mean anomaly: 250.4527 deg

Mean motion: 14.41825233 rev/day

Mean motion (dot): 0.00009705 rev/day2

B* drag term: 0.0029492256 1/REarth

Two-line elements (TLE)

Creation date: Dec. 11, 2025, 3:54 a.m.

Reference frame: TEME

Reference center: EARTH

Epoch: Dec. 10, 2025, 5:47 p.m. UTC

TLE line 0: 0 FENGYUN 1C DEB

TLE line 1: 1 35233U 99025DQR 25344.74137975 .00009705 00000-0 29492-2 0 9991

TLE line 2: 2 35233 98.7698 83.8157 0041301 267.1274 250.4527 14.41825233911475

Live tracking on map

Real-time ground track for satellite FENGYUN 1C DEB.

In-orbit conjunctions

A list of the most updated potential collisions computed for object FENGYUN 1C DEB.

Target Orbit TCA Probability of collision Miss distance Type
COSMOS 2251 DEB LEO 2025-10-06 12:53:13 0.0002125189 85.0 (m) DEBRIS
FENGYUN 1C DEB SSO 2025-08-18 19:51:07 0.0001531927 141.0 (m) DEBRIS
METEOR 2-5 DEB LEO 2025-07-16 09:57:03 0.0004829505 40.0 (m) DEBRIS
SL-8 R/B LEO 2025-04-04 09:26:26 0.0001127108 247.0 (m) ROCKET BODY
CZ-6A DEB LEO 2025-02-25 05:08:24 0.0001254748 864.0 (m) DEBRIS

Associated space launch

Chinese polar orbiting meteorological satellite

FENGYUN 1C DEB was lifted into orbit during the mission ‘Long March 4B | Feng Yun 1C’, on board a Long March 4B space rocket.

The launch took place on May 10, 1999, 1:33 a.m. from Launch Complex 7.

For more information about the launch, click the button.

Launch to space Long March 4B | Feng Yun 1C
Long March 4B | Feng Yun 1C

Agency: N/A

Status: Launch Successful

Launch date: May 10, 1999, 1:33 a.m. UTC

Rocket: Long March 4B

Launch pad: Launch Complex 7

Location: Taiyuan Satellite Launch Center, People's Republic of China

...

Latest news about this satellite

There are no fresh news available about this satellite. Check back as we update our databases every day.


Newsletter sign-up

Weekly statistics, charts and insights to help you stay on top of the space industry.